[ hide orbit diagram ]
For accurate long-term ephemerides, please instead use our Horizons system.This orbit viewer was implemented using two-body methods, and hence should not be used for determining accurate long-term trajectories (over several years or decades) or planetary encounter circumstances.
Orbital Elements at Epoch 2459000.5 (2020-May-31.0) TDB
Reference: JPL 20 (heliocentric ecliptic J2000)
Element | Value | Uncertainty (1-sigma) | Units |
e | .08195306502909877 | 5.2607e-08 | |
a | 2.690112974938219 | 1.5899e-08 | au |
q | 2.469649971367485 | 1.4588e-07 | au |
i | 5.844638809366693 | 6.574e-06 | deg |
node | 349.1383430422102 | 4.622e-05 | deg |
peri | 129.2659615941284 | 6.0715e-05 | deg |
M | 26.21618263484808 | 3.7077e-05 | deg |
tp | 2458883.139714117197 (2020-Feb-03.63971412) | 0.00016597 | TDB |
period | 1611.58867048966 4.41 | 1.4287e-05 3.912e-08 | d yr |
n | .2233820618077557 | 1.9803e-09 | deg/d |
Q | 2.910575978508953 | 1.7202e-08 | au |
|
| | Orbit Determination Parameters
Additional Information
|
[ show covariance matrix ]
Physical Parameter Table
Parameter |
Symbol |
Value |
Units |
Sigma |
Reference |
Notes |
absolute magnitude |
H |
15.6 |
|
n/a |
MPO453845 |
|
|
136111 (2003 FC79) Discovered 2003-Mar-27 by Spacewatch at Kitt Peak |
Reference: 20060907/Numbers.arc | Last Updated: 2006-09-10 |
|
[ hide close-approach data ]
Close-Approach Data ...sorted by Date/Time (TDB)
|
Date/Time (TDB) |
Time Uncertainty (days_HH:MM) |
Body |
Nominal Distance (au) |
Minimum Distance (au) |
Maximum Distance (au) |
V-relative (km/s) |
V-infinity (km/s) |
JD (TDB) |
Time Uncertainty (minutes) |
Semi-major axis (km) |
Semi-minor axis (km) |
range-LOV angle (deg) |
N-sigma |
BP |
Orbit Ref. |
Reference |
Modified |
1911-Jun-19 08:27 |
00:03 |
Eunom |
0.0134473148800598 |
0.0134134007830754 |
0.0134812393080858 |
4.6819967394826 |
4.68199651652246 |
2419206.852240593 |
3.28497626048379 |
1789.54239663386 |
74.3723633968503 |
-19.1990928660586 |
8949.78217530486 |
T |
20 |
CATAB v2.0f-lin.ifort 2020-Nov-12 15:55:36 |
2020-Nov-12 15:55 |
2028-Dec-26 11:25 |
00:03 |
Amphi |
0.0490026095417905 |
0.0489952910393768 |
0.0490099286907744 |
1.4397299881847 |
1.43972990670061 |
2462131.975884000 |
3.3116495235798 |
461.620980617635 |
56.1623247937721 |
38.2162293368168 |
81386.6435207979 |
T |
20 |
CATAB v2.0f-lin.ifort 2020-Nov-12 15:55:36 |
2020-Nov-12 15:55 |
2192-Jun-04 06:40 |
01:42 |
Amphi |
0.0364367766838899 |
0.0364059581066585 |
0.0364676909919679 |
1.01313404356814 |
1.01313388784032 |
2521826.777520923 |
102.181086223982 |
3279.81639479722 |
49.6067798461415 |
-62.5188872386556 |
96722.8148397823 |
T |
20 |
CATAB v2.0f-lin.ifort 2020-Nov-12 15:55:36 |
2020-Nov-12 15:55 |
|
|